STARLINK-5531 (55383 NORAD) Tracking and Keplerian Element Data

This shows tracking and keplerian element data for the satellite.

Feedback or suggestion? Click here.




ElementValue
Catalog55383
NameSTARLINK-5531
Epoch Orbit1619
Epoch Day127.00001157
Epoch Year2023
RAAN165.7337
Inclination42.9964
Eccentricity0.0001314
Argument of Perigee265.0913
Mean Anonmoly145.3121
Mean Motion15.07339068
Decay Rate-0.00865547
L11 55383U 23013BE 23127.00001157 -.00865547 00000+0 -60646-1 0 9991
L22 55383 42.9964 165.7337 0001314 265.0913 145.3121 15.07339068 16193



Live tracking and technical data element details for STARLINK-5531 (NORAD 55383). STARLINK-5531 can be tracked NOW for your location showing map with azimuth and elevation plus other details from your city location.







IsCatalogInMostPopularTable: catalog: 55383, numindb: 1
Update: records affected: 1



GetName: 55383 STARLINK-5531

Hit Count: updated at: Sun, 28 May 2023 05:47:03 GMT